Terminal Aerodrome Forecast
Issued by NWS

Home | Current Version | Previous Version | Text Only | Print | Product List | Glossary On
Versions: 1 2 3 4 5 6 7 8 9 10 11 12 13 14 15 16 17 18 19 20 21 22 23 24 25 26 27 28 29 30 31 32 33 34 35 36 37 38 39 40
000
FTUS44 KLIX 291153 AAA
TAFHDC
TAF AMD
KHDC 291153Z 2912/3012 13005KT P6SM BKN015 BKN250
     FM291500 15009KT P6SM BKN035
     FM300300 15010KT P6SM BKN020
     FM300900 16010KT P6SM OVC015=

USA.gov is the U.S. government's official web portal to all federal, state and local government web resources and services.